Asheville, NC

9:32 PM EDT on July 25, 2017 (GMT -0400)
Asheville Regional

Weather History for KAVL - July, 2007

Change the Weather History Date:

Sunday, July 8, 2007

  Actual Average Record
Temperature  
Mean Temperature 75 °F 74 °F  
Max Temperature 87 °F 84 °F 96 °F (1988)
Min Temperature 62 °F 63 °F 50 °F (1972)
Degree Days  
Heating Degree Days 0 0  
Month to date heating degree days 0 0  
Since 1 June heating degree days 14  
Since 1 July heating degree days 0 0  
Cooling Degree Days 10 9  
Month to date cooling degree days 54 68  
Year to date cooling degree days 289 303  
Since 1 June cooling degree days 245  
Growing Degree Days 24 (Base 50)    
Moisture  
Dew Point 62 °F    
Average Humidity 66    
Maximum Humidity 93    
Minimum Humidity 39    
Precipitation  
Precipitation 0.00 in 0.14 in 2.08 in (1916)
Month to date precipitation 0.04 1.14  
Year to date precipitation 14.77 24.04  
Snow  
Snow 0.00 in 0.00 in 0.00 in ()
Month to date snowfall 0.0 0.0  
Since 1 June snowfall 0.0  
Since 1 July snowfall 0.0 0.0  
Snow Depth -    
Sea Level Pressure  
Sea Level Pressure 29.95 in    
Wind  
Wind Speed 3 mph (SSW)    
Max Wind Speed 13 mph    
Max Gust Speed 15 mph    
Visibility 6 miles    
Events Fog    
T = Trace of Precipitation, MM = Missing Value Source: NWS Daily Summary

Daily Weather History Graph

Daily Weather History Graph

Search for Another Location

Airport or City:

Trip Planner

Search our weather history database for the weather conditions in past years. The results will help you decide how hot, cold, wet, or windy it might be!

Date:

Astronomy

Jul. 08, 2007 Rise Set
Actual Time 6:21 AM EDT 8:48 PM EDT
Civil Twilight 5:52 AM EDT 9:17 PM EDT
Nautical Twilight 5:15 AM EDT 9:54 PM EDT
Astronomical Twilight 4:35 AM EDT 10:34 PM EDT
Moon 1:10 AM EDT (7/8) 2:57 PM EDT (7/8)
Length of Visible Light 15h 25m
Length of Day
14h 26m
Last Quarter, 39% of the Moon is Illuminated
Jul 8
Last Quarter
Jul 14
New
Jul 22
First Quarter
Jul 29
Full
Aug 5
Last Quarter

Hourly Weather History & Observations

Time (EDT) Temp. Heat Index Dew Point Humidity Pressure Visibility Wind Dir Wind Speed Gust Speed Precip Events Conditions
12:54 AM 69.1 °F - 63.0 °F 81% 29.94 in 10.0 mi Calm Calm - N/A   Overcast
1:54 AM 66.0 °F - 63.0 °F 90% 29.94 in 8.0 mi Calm Calm - N/A   Mostly Cloudy
2:54 AM 66.0 °F - 63.0 °F 90% 29.93 in 7.0 mi Calm Calm - N/A   Overcast
3:54 AM 64.9 °F - 62.1 °F 90% 29.92 in 7.0 mi Calm Calm - N/A   Clear
4:54 AM 64.0 °F - 61.0 °F 90% 29.93 in 5.0 mi Calm Calm - N/A   Clear
5:54 AM 63.0 °F - 61.0 °F 93% 29.94 in 4.0 mi Calm Calm - N/A   Mostly Cloudy
6:03 AM 62.6 °F - 60.8 °F 94% 30.01 in 6.0 mi Calm Calm - N/A   Scattered Clouds
6:11 AM 62.6 °F - 60.8 °F 94% 30.01 in 4.0 mi Calm Calm - N/A   Mostly Cloudy
6:21 AM 62.6 °F - 60.8 °F 94% 30.01 in 0.2 mi Calm Calm - N/A Fog Fog
6:25 AM 62.6 °F - 60.8 °F 94% 30.01 in 0.2 mi Calm Calm - N/A Fog Fog
6:54 AM 62.1 °F - 61.0 °F 96% 29.94 in 0.2 mi Calm Calm - N/A Fog Fog
7:43 AM 64.4 °F - 62.6 °F 94% 30.02 in 0.8 mi Calm Calm - N/A   Overcast
7:54 AM 64.0 °F - 63.0 °F 96% 29.95 in 1.2 mi Calm Calm - N/A   Overcast
8:02 AM 64.4 °F - 62.6 °F 94% 30.02 in 1.8 mi NW 4.6 mph - N/A   Overcast
8:26 AM 64.4 °F - 62.6 °F 94% 30.03 in 1.8 mi NW 8.1 mph - N/A   Overcast
8:54 AM 66.9 °F - 63.0 °F 87% 29.96 in 4.0 mi NW 5.8 mph - N/A   Mostly Cloudy
9:00 AM 68.0 °F - 62.6 °F 83% 30.03 in 4.0 mi Variable 3.5 mph - N/A   Haze
9:54 AM 73.9 °F - 63.0 °F 68% 29.96 in 8.0 mi NNW 4.6 mph - N/A   Clear
10:54 AM 77.0 °F - 64.9 °F 66% 29.96 in 7.0 mi Variable 3.5 mph - N/A   Clear
11:54 AM 80.1 °F 81.2 °F 62.1 °F 54% 29.94 in 10.0 mi Variable 3.5 mph - N/A   Clear
12:54 PM 81.0 °F 81.3 °F 59.0 °F 47% 29.93 in 10.0 mi SSE 5.8 mph - N/A   Clear
1:54 PM 84.0 °F 84.4 °F 61.0 °F 46% 29.91 in 10.0 mi Variable 4.6 mph - N/A   Clear
2:54 PM 84.9 °F 84.8 °F 60.1 °F 43% 29.90 in 10.0 mi SSW 6.9 mph - N/A   Clear
3:54 PM 87.1 °F 86.5 °F 59.0 °F 39% 29.89 in 10.0 mi Variable 3.5 mph - N/A   Partly Cloudy
4:54 PM 84.9 °F 84.8 °F 60.1 °F 43% 29.87 in 10.0 mi Variable 5.8 mph - N/A   Scattered Clouds
5:54 PM 84.0 °F 84.0 °F 60.1 °F 44% 29.87 in 10.0 mi SSE 8.1 mph - N/A   Scattered Clouds
6:54 PM 82.9 °F 84.6 °F 64.9 °F 54% 29.89 in 10.0 mi South 10.4 mph - N/A   Partly Cloudy
7:54 PM 80.1 °F 81.9 °F 64.9 °F 60% 29.91 in 10.0 mi SSE 10.4 mph - N/A   Clear
8:54 PM 75.9 °F - 64.9 °F 69% 29.93 in 10.0 mi South 5.8 mph - N/A   Clear
9:54 PM 73.9 °F - 64.9 °F 73% 29.93 in 10.0 mi SSE 3.5 mph - N/A   Clear
10:54 PM 72.0 °F - 64.9 °F 78% 29.94 in 10.0 mi Calm Calm - N/A   Clear
11:54 PM 70.0 °F - 64.0 °F 81% 29.94 in 8.0 mi Calm Calm - N/A   Clear